星链-5805 (STARLINK-5805 )

导读

STARLINK-5805是美国SpaceX公司星链(Starlink)星座的一员,于2023年6月12日发射入轨,属于低轨通信卫星。它和数千颗同系列卫星共同组网,旨在为全球提供高速低延迟互联网覆盖,尤其能服务偏远、基础设施匮乏地区,推动全球互联,目前已正常在轨运行超两年时间。

基本信息
目录编号:
56912
目录名称:
STARLINK-5805
国际标识:
2023-083AN
轨道中心:
EARTH
卫星名称:
星链-5805
卫星全名:
星链-5805 (STARLINK-5805 )
卫星状态:
在轨 (已飞行1180 天)
发射日期:
2023-06-12 UTC
国别 :
美国 (US)
星等 :
--
轨道信息
数据来源 国际轨道数据 AOE轨道数据
星历时间 2026-09-03T06:24:54+0800
1天前
查看轨道信息
2026-09-03T23:00:00+0800
15小时前
查看轨道信息
半长轴 6861.185km 6861.185km
偏心率 0.0001428 0.0001247
轨道倾角 43.002° 43.003°
近地点辐角 268.504° 255.374°
升交点赤经 149.846° 145.948°
平近点角 91.565° 309.408°
近地点 482.068km 482.192km
远地点 484.028km 483.904km
周期 94.267分钟 94.267分钟
每日圈数 15.275804 15.275805
详细信息
固有亮度:
5
最大亮度:
2.4
卫星平台:
Starlink v1.5
覆盖范围:
全球
运营商:
太空探索技术公司
运营商所在国:
美国
制造商(研发单位):
太空探索技术公司
制造商所在国:
美国
使用方式:
暂无
卫星简介
星链(Starlink)计划是由太空探索技术公司(SpaceX)提出的一个巨型低轨卫星互联网星座项目,计划在2019年至2024年间在太空搭建由约1.2万颗卫星组成的“星链”网络,其中1584颗将部署在地球上空550千米处的近地轨道,并从2020年开始工作。该卫星仍在工作。
2D轨道图
3D轨道图
轨道高度分析图
轨道倾角分析图
轨道综合分析图
查看轨道综合分析图